TimeEDT,TemperatureF,Dew PointF,Humidity,Sea Level PressureIn,VisibilityMPH,Wind Direction,Wind SpeedMPH,Gust SpeedMPH,PrecipitationIn,Events,Conditions,WindDirDegrees,DateUTC
12:53 AM,77.0,75.0,94,30.02,10.0,East,3.5,-,N/A,,Clear,80,2013-09-16 04:53:00
1:53 AM,77.0,75.0,94,30.01,10.0,NE,8.1,-,N/A,,Clear,50,2013-09-16 05:53:00
2:53 AM,75.9,73.9,94,30.00,10.0,NE,8.1,-,N/A,,Clear,50,2013-09-16 06:53:00
3:53 AM,75.9,75.0,97,29.99,10.0,ENE,9.2,-,N/A,,Clear,60,2013-09-16 07:53:00
4:53 AM,75.9,75.0,97,29.99,10.0,ENE,5.8,-,N/A,,Clear,60,2013-09-16 08:53:00
5:53 AM,75.0,75.0,100,29.99,9.0,ENE,6.9,-,N/A,,Clear,60,2013-09-16 09:53:00
6:53 AM,75.9,75.0,97,29.98,9.0,ENE,6.9,-,N/A,,Clear,60,2013-09-16 10:53:00
7:53 AM,75.9,75.9,100,30.01,9.0,ENE,8.1,-,N/A,,Clear,60,2013-09-16 11:53:00
8:53 AM,78.1,75.9,93,30.01,10.0,ENE,6.9,-,N/A,,Clear,70,2013-09-16 12:53:00
9:53 AM,82.9,78.1,85,30.02,10.0,East,11.5,-,N/A,,Scattered Clouds,80,2013-09-16 13:53:00
10:53 AM,84.9,77.0,77,30.03,10.0,East,16.1,21.9,N/A,,Partly Cloudy,90,2013-09-16 14:53:00
11:53 AM,88.0,75.9,67,30.01,10.0,East,12.7,18.4,N/A,,Mostly Cloudy,90,2013-09-16 15:53:00
12:53 PM,82.9,77.0,82,30.01,10.0,ESE,11.5,-,0.14,,Overcast,120,2013-09-16 16:53:00
1:53 PM,82.9,75.9,79,30.01,10.0,ENE,10.4,-,N/A,,Overcast,70,2013-09-16 17:53:00
2:06 PM,82.4,75.2,79,30.01,10.0,ENE,10.4,-,N/A,Thunderstorm,Mostly Cloudy,70,2013-09-16 18:06:00
2:14 PM,82.4,75.2,79,30.01,10.0,ENE,11.5,-,N/A,,Mostly Cloudy,70,2013-09-16 18:14:00
2:53 PM,82.9,75.0,77,30.00,10.0,NE,6.9,-,N/A,,Mostly Cloudy,50,2013-09-16 18:53:00
3:46 PM,78.8,75.2,89,29.98,1.8,NNE,8.1,17.3,0.07,Rain,Heavy Rain,30,2013-09-16 19:46:00
3:53 PM,78.1,75.9,93,29.98,2.0,NNE,8.1,-,0.08,Rain,Light Rain,30,2013-09-16 19:53:00
4:01 PM,78.8,75.2,89,29.98,10.0,NNE,8.1,-,0.00,,Scattered Clouds,30,2013-09-16 20:01:00
4:53 PM,79.0,75.9,90,29.96,10.0,NE,10.4,-,0.00,,Clear,40,2013-09-16 20:53:00
5:53 PM,79.0,75.9,90,29.95,10.0,ENE,9.2,-,N/A,,Clear,60,2013-09-16 21:53:00
6:53 PM,79.0,75.0,88,29.96,10.0,NE,8.1,-,N/A,,Clear,40,2013-09-16 22:53:00
7:53 PM,78.1,75.0,90,29.99,10.0,ENE,5.8,-,N/A,,Clear,60,2013-09-16 23:53:00
8:53 PM,78.1,75.0,90,30.00,10.0,East,4.6,-,N/A,,Clear,80,2013-09-17 00:53:00
9:53 PM,77.0,75.0,94,29.99,10.0,NE,5.8,-,N/A,,Clear,40,2013-09-17 01:53:00
10:53 PM,75.9,75.0,97,29.99,10.0,ENE,6.9,-,N/A,,Clear,60,2013-09-17 02:53:00
11:53 PM,75.9,75.0,97,30.00,10.0,NE,5.8,-,N/A,,Clear,50,2013-09-17 03:53:00